Location: Unspecified
(0.0000°N, 0.0000°E)
Time: 17:45:32
(UTC+00:00)

Hubble Space Telescope - Pass Details

Date: 11 May 2021
Orbit: 535 x 539 km, 28.5° (Epoch: 14 May)

Event Time Altitude Azimuth Distance (km) Brightness Sun altitude
Rises 18:36:31 0° 272° (W) 2,672 6.0 -9.5°
Reaches altitude 10° 18:39:19 10° 253° (WSW) 1,784 4.3 -10.2°
Maximum altitude 18:42:13 18° 208° (SSW) 1,335 2.9 -10.9°
Drops below altitude 10° 18:45:08 10° 163° (SSE) 1,786 3.1 -11.6°
Enters shadow 18:45:58 - 156° (SSE) 2,025 3.3 -11.8°
